Torna al catalogo

DELTA 1 DEB

AttivoUNKNOWN
NORAD 15540·DEBRIS·🇺🇸 United States

Lanciato Jul 29, 1976 da Vandenberg Space Force Base

Loading…

Prossimi Passaggi (prossime 24 ore)

TLE

AggiornatoSource: Space-Track

Epoca: Sep 14, 2026, 18:41 UTC

1 15540U 76077EU  26257.77879948 -.00000118  00000-0 -92807-3 0  9994
2 15540 102.7152 199.4367 0561583 252.9821 129.4588 11.68257855509516

Traccia DELTA 1 DEB in tempo reale con AllMySat

Download on the App Store